TimeMST,TemperatureF,Dew PointF,Humidity,Sea Level PressureIn,VisibilityMPH,Wind Direction,Wind SpeedMPH,Gust SpeedMPH,PrecipitationIn,Events,Conditions,WindDirDegrees,DateUTC
12:53 AM,21.0,-0.0,40,30.00,10.0,NE,5.8,-,N/A,,Clear,40,2013-02-17 07:53:00
1:53 AM,21.0,-0.0,40,29.97,10.0,NE,6.9,-,N/A,,Clear,40,2013-02-17 08:53:00
2:53 AM,24.1,3.0,40,29.93,10.0,North,6.9,-,N/A,,Clear,360,2013-02-17 09:53:00
3:53 AM,17.1,1.0,50,29.95,10.0,NE,10.4,-,N/A,,Clear,50,2013-02-17 10:53:00
4:53 AM,17.1,1.0,50,29.95,10.0,NE,6.9,-,N/A,,Clear,40,2013-02-17 11:53:00
5:53 AM,21.0,3.0,46,29.97,10.0,NE,9.2,-,N/A,,Clear,50,2013-02-17 12:53:00
6:53 AM,18.0,1.9,50,29.99,10.0,NE,13.8,-,N/A,,Clear,50,2013-02-17 13:53:00
7:53 AM,25.0,3.0,39,29.97,10.0,NE,8.1,-,N/A,,Clear,50,2013-02-17 14:53:00
8:53 AM,32.0,6.1,34,29.93,10.0,NE,10.4,-,N/A,,Clear,40,2013-02-17 15:53:00
9:53 AM,42.1,5.0,22,29.88,10.0,ENE,4.6,-,N/A,,Clear,60,2013-02-17 16:53:00
10:53 AM,51.1,1.0,13,29.81,10.0,East,5.8,-,N/A,,Clear,100,2013-02-17 17:53:00
11:53 AM,55.0,-2.9,9,29.76,10.0,SSW,11.5,-,N/A,,Clear,210,2013-02-17 18:53:00
12:53 PM,59.0,-11.9,5,29.70,10.0,South,16.1,-,N/A,,Clear,190,2013-02-17 19:53:00
1:53 PM,62.1,-20.0,4,29.63,10.0,SW,20.7,26.5,N/A,,Clear,220,2013-02-17 20:53:00
2:53 PM,57.0,-29.9,4,29.60,10.0,WSW,18.4,24.2,N/A,,Clear,240,2013-02-17 21:53:00
3:53 PM,55.0,-26.0,4,29.62,10.0,West,16.1,23.0,N/A,,Clear,270,2013-02-17 22:53:00
4:53 PM,55.0,-18.0,5,29.61,10.0,West,17.3,27.6,N/A,,Clear,260,2013-02-17 23:53:00
5:53 PM,51.1,-9.9,8,29.62,10.0,West,17.3,-,N/A,,Clear,270,2013-02-18 00:53:00
6:53 PM,39.9,-8.0,13,29.69,10.0,WSW,15.0,-,N/A,,Clear,250,2013-02-18 01:53:00
7:53 PM,41.0,-6.0,14,29.65,10.0,SW,6.9,-,N/A,,Clear,220,2013-02-18 02:53:00
8:53 PM,37.9,-5.1,16,29.64,10.0,WSW,5.8,-,N/A,,Clear,240,2013-02-18 03:53:00
9:53 PM,36.0,-2.9,19,29.61,10.0,WSW,5.8,-,N/A,,Clear,250,2013-02-18 04:53:00
10:53 PM,37.0,1.9,23,29.57,10.0,West,6.9,-,N/A,,Clear,260,2013-02-18 05:53:00
11:53 PM,44.1,6.1,21,29.51,10.0,West,26.5,39.1,N/A,,Clear,270,2013-02-18 06:53:00